UAL1454 KDCA-KDTW

Flight info

Callsign UAL1454
Flight time N/A
Altitude 30000
Route HORTO4 BUFFR Q178 KOZAR BONZZ2
Aircraft B739/M-SDE2E3FGHIRWXY/LB1

Departure

Time 2026-05-05 20:56
Airport Ronald Reagan Washington National Airport (KDCA)

Arrival

Time N/A
Airport Detroit Metropolitan Wayne County Airport (KDTW)
Time Latitude Longitude Altitude Speed Heading
2026-05-05 20:35 38.85167 -77.04050 28 ft 0 kts 317°
2026-05-05 20:46 38.85160 -77.04040 28 ft 2 kts 306°
2026-05-05 20:47 38.85150 -77.04024 28 ft 2 kts 312°
2026-05-05 20:47 38.85142 -77.04012 28 ft 2 kts 311°
2026-05-05 20:47 38.85133 -77.03999 28 ft 2 kts 310°
2026-05-05 20:47 38.85123 -77.03985 28 ft 2 kts 311°
2026-05-05 20:48 38.85116 -77.03973 28 ft 1 kts 313°
2026-05-05 20:48 38.85111 -77.03970 28 ft 0 kts 352°
2026-05-05 20:48 38.85108 -77.03970 28 ft 0 kts 354°
2026-05-05 20:48 38.85109 -77.03970 28 ft 0 kts 354°
2026-05-05 20:50 38.85115 -77.03969 28 ft 3 kts
2026-05-05 20:51 38.85137 -77.03957 28 ft 3 kts 39°
2026-05-05 20:51 38.85171 -77.03924 28 ft 8 kts 13°
2026-05-05 20:51 38.85251 -77.03925 28 ft 13 kts 355°
2026-05-05 20:51 38.85361 -77.03938 28 ft 16 kts 356°
2026-05-05 20:52 38.85469 -77.03947 28 ft 14 kts 355°
2026-05-05 20:52 38.85569 -77.03959 28 ft 13 kts 354°
2026-05-05 20:52 38.85604 -77.03963 28 ft 1 kts 355°
2026-05-05 20:52 38.85617 -77.03964 28 ft 2 kts 356°
2026-05-05 20:53 38.85668 -77.03966 28 ft 12 kts 358°
2026-05-05 20:53 38.85778 -77.03976 28 ft 16 kts 354°
2026-05-05 20:53 38.85885 -77.03990 28 ft 14 kts 358°
2026-05-05 20:53 38.85978 -77.03966 28 ft 10 kts 16°
2026-05-05 20:54 38.86000 -77.03959 28 ft 0 kts 16°
2026-05-05 20:54 38.86005 -77.03957 28 ft 3 kts 16°
2026-05-05 20:54 38.86046 -77.03941 28 ft 8 kts 16°
2026-05-05 20:54 38.86081 -77.03883 28 ft 8 kts 122°
2026-05-05 20:55 38.86041 -77.03864 28 ft 5 kts 173°
2026-05-05 20:55 38.85862 -77.03848 28 ft 63 kts 177°
2026-05-05 20:55 38.85155 -77.03778 29 ft 138 kts 175°
2026-05-05 20:55 38.84043 -77.03625 441 ft 168 kts 176°
2026-05-05 20:56 38.82904 -77.03488 1320 ft 173 kts 180°
2026-05-05 20:56 38.81691 -77.03355 2131 ft 182 kts 182°
2026-05-05 20:56 38.80473 -77.03445 3124 ft 179 kts 189°
2026-05-05 20:56 38.79254 -77.03520 4038 ft 181 kts 186°
2026-05-05 20:57 38.77985 -77.03528 4849 ft 187 kts 186°
2026-05-05 20:57 38.76749 -77.03840 5749 ft 183 kts 205°
2026-05-05 20:57 38.75713 -77.04745 6587 ft 186 kts 225°
2026-05-05 20:57 38.74988 -77.06078 7424 ft 192 kts 245°
2026-05-05 20:58 38.74723 -77.07764 8390 ft 194 kts 262°
2026-05-05 20:58 38.74643 -77.09441 9180 ft 193 kts 262°
2026-05-05 20:58 38.74541 -77.11207 9670 ft 205 kts 262°
2026-05-05 20:58 38.74436 -77.13062 10159 ft 218 kts 262°
2026-05-05 20:59 38.74317 -77.15041 10644 ft 231 kts 263°
2026-05-05 20:59 38.74186 -77.17133 11121 ft 245 kts 263°
2026-05-05 20:59 38.74049 -77.19356 11629 ft 257 kts 264°
2026-05-05 20:59 38.74109 -77.21712 12113 ft 274 kts 278°
2026-05-05 21:00 38.74806 -77.23962 12526 ft 296 kts 298°
2026-05-05 21:00 38.76238 -77.25982 12999 ft 318 kts 316°
2026-05-05 21:00 38.78193 -77.27408 13517 ft 338 kts 331°
2026-05-05 21:00 38.80370 -77.28472 14292 ft 342 kts 334°
2026-05-05 21:01 38.82634 -77.29531 14976 ft 347 kts 334°
2026-05-05 21:01 38.84914 -77.30621 15716 ft 350 kts 334°
2026-05-05 21:01 38.87136 -77.31816 16381 ft 352 kts 331°
2026-05-05 21:01 38.89394 -77.33145 17071 ft 355 kts 330°
2026-05-05 21:02 38.91650 -77.34494 17689 ft 360 kts 330°
2026-05-05 21:02 38.93918 -77.35839 18326 ft 364 kts 330°
2026-05-05 21:02 38.96238 -77.37205 18954 ft 368 kts 330°
2026-05-05 21:02 38.98563 -77.38571 19539 ft 372 kts 331°
2026-05-05 21:03 39.00946 -77.39971 20133 ft 376 kts 330°
2026-05-05 21:03 39.03323 -77.41367 20707 ft 380 kts 331°
2026-05-05 21:03 39.05765 -77.42803 21262 ft 384 kts 331°
2026-05-05 21:03 39.08201 -77.44235 21860 ft 386 kts 331°
2026-05-05 21:04 39.10553 -77.45614 22341 ft 391 kts 332°
2026-05-05 21:04 39.12800 -77.46757 22833 ft 395 kts 336°
2026-05-05 21:04 39.15357 -77.47832 23303 ft 401 kts 338°
2026-05-05 21:04 39.17994 -77.48862 23906 ft 401 kts 339°
2026-05-05 21:05 39.20366 -77.49776 24436 ft 402 kts 339°
2026-05-05 21:05 39.23098 -77.50832 24969 ft 404 kts 339°
2026-05-05 21:05 39.25455 -77.51748 25502 ft 403 kts 339°
2026-05-05 21:05 39.27809 -77.52665 26166 ft 398 kts 338°
2026-05-05 21:06 39.32667 -77.54565 27494 ft 389 kts 338°
2026-05-05 21:06 39.35375 -77.55630 28144 ft 385 kts 338°
2026-05-05 21:06 39.37943 -77.56644 28736 ft 382 kts 338°
2026-05-05 21:07 39.40405 -77.57822 29297 ft 375 kts 331°
2026-05-05 21:07 39.42703 -77.59355 29778 ft 370 kts 324°
2026-05-05 21:07 39.46609 -77.63546 29876 ft 364 kts 310°
2026-05-05 21:08 39.49314 -77.68323 29869 ft 354 kts 296°
2026-05-05 21:09 39.52311 -77.75851 29853 ft 356 kts 295°
2026-05-05 21:09 39.54591 -77.81550 29854 ft 357 kts 295°
2026-05-05 21:10 39.56102 -77.85355 29849 ft 369 kts 295°
2026-05-05 21:10 39.56761 -77.87015 29848 ft 374 kts 295°